Regional Weather Roundup
Issued by NWS

Home | Current Version | Previous Version | Text Only | Print | Product List | Glossary Off
Versions: 1 2 3 4 5 6 7 8 9 10 11 12 13 14 15 16 17 18 19 20 21 22 23 24 25 26 27 28 29 30 31 32 33 34 35 36 37 38 39 40 41 42 43 44 45 46 47 48 49 50

638
ASUS43 KMKX 171810
RWRWI

WISCONSIN REGIONAL WEATHER ROUNDUP
NATIONAL WEATHER SERVICE MILWAUKEE/SULLIVAN WI
1200 PM CST SUN DEC 17 2017

NOTE: "FAIR" INDICATES FEW OR NO CLOUDS BELOW 12,000 FEET WITH NO
SIGNIFICANT WEATHER AND/OR OBSTRUCTIONS TO VISIBILITY.

WIZ001-002-006>008-014>016-023>028-171900-
NORTHWEST WISCONSIN

CITY           SKY/WX    TMP DP  RH WIND       PRES   REMARKS
SUPERIOR ARPT  CLOUDY    25  20  81 CALM      30.07F
6HR MIN TEMP:  21; 6HR MAX TEMP:  25;

ASHLAND        CLOUDY    26  21  81 CALM      30.07F
6HR MIN TEMP:  21; 6HR MAX TEMP:  26;

HAYWARD        CLOUDY    26  23  88 S7        30.05F WCI  18
6HR MIN TEMP:  22; 6HR MAX TEMP:  26;

SIREN          CLOUDY    24  24  97 CALM      30.06F FOG
6HR MIN TEMP:  18; 6HR MAX TEMP:  24;

CUMBERLAND     CLOUDY    27  25  93 CALM      30.03F FOG
RICE LAKE      CLOUDY    27  27  99 CALM      30.05F FOG
6HR MIN TEMP:  24; 6HR MAX TEMP:  27;

CHETEK         CLOUDY    28  26  92 S7        30.04F WCI  21
6HR MIN TEMP:  24; 6HR MAX TEMP:  28;

LADYSMITH      CLOUDY    28  25  86 SE7       30.05F WCI  21
6HR MIN TEMP:  24; 6HR MAX TEMP:  28;

EAU CLAIRE     CLOUDY    28  26  92 SE7       30.04F FOG     WCI  21
6HR MIN TEMP:  25; 6HR MAX TEMP:  28;

MENOMONIE      CLOUDY    29  27  91 E7        30.05F FOG     WCI  22
6HR MIN TEMP:  26; 6HR MAX TEMP:  29;

NEW RICHMOND   CLOUDY    27  24  87 CALM      30.04F FOG
6HR MIN TEMP:  23; 6HR MAX TEMP:  28;

OSCEOLA        CLOUDY    26  26 100 CALM      30.08F FOG
6HR MIN TEMP:  23; 6HR MAX TEMP:  26;

$$

WIZ003>005-009-010-017-018-171900-
NORTH CENTRAL WISCONSIN

CITY           SKY/WX    TMP DP  RH WIND       PRES   REMARKS
MANITOWISH WTR CLOUDY    23  23 100 S8        30.03F FOG     WCI  14
6HR MIN TEMP:  20; 6HR MAX TEMP:  23;

ARBOR VITAE    CLOUDY    25  23  93 S3        30.03F FOG
6HR MIN TEMP:  22; 6HR MAX TEMP:  25;

WOODRUFF       CLOUDY    25  23  93 S3        30.03F FOG
6HR MIN TEMP:  22; 6HR MAX TEMP:  25;

RHINELANDER    CLOUDY    26  25  96 S3        30.04F
6HR MIN TEMP:  20; 6HR MAX TEMP:  26;

EAGLE RIVER    CLOUDY    23  23 100 CALM      30.04F FOG
6HR MIN TEMP:  18; 6HR MAX TEMP:  23;

LAND O LAKES   CLOUDY    24  23  96 S5        30.05F WCI  18
6HR MIN TEMP:  19; 6HR MAX TEMP:  24;

PHILLIPS       CLOUDY    25  24  96 S3        30.04F
6HR MIN TEMP:  21; 6HR MAX TEMP:  25;

TOMAHAWK       CLOUDY    25  23  93 CALM      30.05F FOG
6HR MIN TEMP:  21; 6HR MAX TEMP:  25;

MEDFORD        CLOUDY    26  24  93 S8        30.03F FOG     WCI  17
6HR MIN TEMP:  22; 6HR MAX TEMP:  26;

MERRILL        CLOUDY    26  25  96 SE3       30.06F FOG
6HR MIN TEMP:  23; 6HR MAX TEMP:  26;

$$

WIZ029-030-035-036-043>047-171900-
CENTRAL WISCONSIN

CITY           SKY/WX    TMP DP  RH WIND       PRES   REMARKS
WAUSAU         CLOUDY    26  25  96 SE3       30.04F FOG
6HR MIN TEMP:  22; 6HR MAX TEMP:  26;

MOSINEE        CLOUDY    27  27 100 E5        30.05F FOG     WCI  21
MARSHFIELD     CLOUDY    26  25  96 SE6       30.03F FOG     WCI  19
6HR MIN TEMP:  23; 6HR MAX TEMP:  26;

STEVENS POINT  CLOUDY    26  26 100 E5        30.06F FOG     WCI  20
6HR MIN TEMP:  22; 6HR MAX TEMP:  26;

WAUPACA        CLOUDY    30  26  84 CALM      30.07F FOG
6HR MIN TEMP:  27; 6HR MAX TEMP:  30;

WAUTOMA        CLOUDY    30  27  88 E3        30.06F
6HR MIN TEMP:  25; 6HR MAX TEMP:  30;

WISC RAPIDS    CLOUDY    28  25  88 E5        30.07F FOG     WCI  23
6HR MIN TEMP:  24; 6HR MAX TEMP:  28;

CAMP DOUGLAS   CLOUDY    32  27  80 SE5       30.05F WCI  27
$$

WIZ011>013-019>022-031-037>040-048>050-171900-
NORTHEAST WISCONSIN

CITY           SKY/WX    TMP DP  RH WIND       PRES   REMARKS
ANTIGO         FOG       24  24 100 SE3       30.05F VSB 1
6HR MIN TEMP:  20; 6HR MAX TEMP:  24;

SHAWANO        CLOUDY    27  23  85 NE3       30.08F
6HR MIN TEMP:  23; 6HR MAX TEMP:  27;

OCONTO         CLOUDY    30  27  88 E5        30.09F WCI  25
6HR MIN TEMP:  21; 6HR MAX TEMP:  30;

STURGEON BAY   CLOUDY    31  27  85 SE6       30.09F WCI  25
6HR MIN TEMP:  28; 6HR MAX TEMP:  31;

GREEN BAY      CLOUDY    30  25  81 NE3       30.07F
6HR MIN TEMP:  26; 6HR MAX TEMP:  30;

MANITOWOC      CLOUDY    31  28  89 E8        30.08F WCI  23
6HR MIN TEMP:  30; 6HR MAX TEMP:  31;

APPLETON       CLOUDY    28  25  86 NE6       30.05F WCI  22
CLINTONVILLE   CLOUDY    27  21  80 NE5       30.08F WCI  21
OSHKOSH        CLOUDY    31  27  85 E10       30.05F FOG     WCI  22
6HR MIN TEMP:  28; 6HR MAX TEMP:  31;

$$

WIZ032>034-041-042-053>061-171900-
SOUTHWEST WISCONSIN

CITY           SKY/WX    TMP DP  RH WIND       PRES   REMARKS
LA CROSSE      CLOUDY    32  28  85 S5        30.05F WCI  27
6HR MIN TEMP:  29; 6HR MAX TEMP:  32;

SPARTA         CLOUDY    30  28  92 SE6       30.05F WCI  24
6HR MIN TEMP:  26; 6HR MAX TEMP:  30;

VIROQUA        CLOUDY    29  29 100 CALM      30.02F
6HR MIN TEMP:  27; 6HR MAX TEMP:  29;

BOSCOBEL       CLOUDY    34  29  82 E5        30.05F HAZE    WCI  30
6HR MIN TEMP:  32; 6HR MAX TEMP:  34;

PRAIRIE DU CHI CLOUDY    34  29  82 E3        30.04F HAZE
6HR MIN TEMP:  31; 6HR MAX TEMP:  34;

PLATTEVILLE    CLOUDY    36  32  87 E8        30.02F WCI  29
6HR MIN TEMP:  32; 6HR MAX TEMP:  36;

$$

WIZ056-057-062-063-064-067-068-171900-
SOUTH CENTRAL WISCONSIN

CITY           SKY/WX    TMP DP  RH WIND       PRES   REMARKS
REEDSBURG      CLOUDY    31  29  92 SE5       30.04F WCI  27
6HR MIN TEMP:  27; 6HR MAX TEMP:  31;

BARABOO/DELLS  CLOUDY    31  28  90 E5        30.03F FOG     WCI  26
6HR MIN TEMP:  27; 6HR MAX TEMP:  31;

LONE ROCK      CLOUDY    34  30  85 E7        30.05F FOG     WCI  28
6HR MIN TEMP:  31; 6HR MAX TEMP:  34;

MINERAL POINT  CLOUDY    36  34  93 E7        30.01F WCI  30
MADISON        CLOUDY    33  30  88 E8        30.04F FOG     WCI  26
6HR MIN TEMP:  31; 6HR MAX TEMP:  33;

MIDDLETON      CLOUDY    35  31  88 E6        30.03F WCI  30
6HR MIN TEMP:  32; 6HR MAX TEMP:  35;

WATERTOWN      CLOUDY    32  32  99 E7        30.04F WCI  26
6HR MIN TEMP:  31; 6HR MAX TEMP:  32;

MONROE         CLOUDY    34  32  93 E7        30.01F FOG     WCI  28
JANESVILLE     CLOUDY    36  32  87 E9        30.02F FOG     WCI  29
$$

WIZ051-052-058>065-066-070>072-171900-
SOUTHEAST WISCONSIN

CITY           SKY/WX    TMP DP  RH WIND       PRES   REMARKS
MILWAUKEE      CLOUDY    34  32  92 E7        30.05F FOG     WCI  28
6HR MIN TEMP:  34; 6HR MAX TEMP:  34;

WAUKESHA       CLOUDY    30  28  93 E8        30.05F FOG     WCI  23
MILWAUKEE/TIMM CLOUDY    32  28  86 E7        30.06F FOG     WCI  26
RACINE         CLOUDY    35  32  88 E6        30.06F FOG     WCI  30
6HR MIN TEMP:  34; 6HR MAX TEMP:  35;

BURLINGTON     CLOUDY    51  51 100 NE7       30.03F FOG
6HR MIN TEMP:  49; 6HR MAX TEMP:  51;

KENOSHA        CLOUDY    36  31  82 E8        30.03F HAZE    WCI  30
6HR MIN TEMP:  34; 6HR MAX TEMP:  36;

FOND DU LAC    CLOUDY    31  26  82 E9        30.05F WCI  23
6HR MIN TEMP:  31; 6HR MAX TEMP:  32;

SHEBOYGAN      CLOUDY    30  29  96 E7        30.06F WCI  23
6HR MIN TEMP:  30; 6HR MAX TEMP:  31;

WEST BEND      CLOUDY    30  30 100 E6        30.05F WCI  24
JUNEAU         CLOUDY    30  28  91 E8        30.05F WCI  23
6HR MIN TEMP:  30; 6HR MAX TEMP:  31;

$$

LSZ147-162-171900-
LAKE SUPERIOR

STATION/POSITION TIME  TEMP    WIND        PRES    WAVE
                       AIR SEA DIR/SP/G            HT/PER
                 (UTC) (F)     (DEG/KT/KT) (MB)    (FT/S)
DEVILS ISLAND    1800   27     230/  8/ 11 1019.0F
SAXON HARBOR     1740   29                 1017.9F
$$

LMZ867-665-643>646-171900-
LAKE MICHIGAN

STATION/POSITION TIME  TEMP    WIND        PRES    WAVE
                       AIR SEA DIR/SP/G            HT/PER
                 (UTC) (F)     (DEG/KT/KT) (MB)    (FT/S)
NORTHPORT PIER   1740



USA.gov is the U.S. government's official web portal to all federal, state and local government web resources and services.